NOAA 16 DEB, 41264

Orbit data source: Space-Track

NOAA 16 DEB, 41264 is space debris in SSO originally from a launch on Thu, 21 Sep 2000 UTC launched from the Air Force Western Test Range (AFWTR). Debris objects in space refer to the collection of defunct objects orbiting the Earth. Examples of debris include non-operational satellites, rocket bodies, and fragments generated from explosions, collisions, or faulty payload assembly.

Loading next visibility...
Identifier
41264, 2000-055FQ
Orbit
SSO
Country
Flag of USUS
Related business
Manufacturer
Unknown
Mission
Spacecraft
Bus & Motor
Unknown
Mass
Unknown
Launch date (UTC)
2000-09-21 (25 years ago)
Launch vehicle
Unknown
Launch site
Air Force Western Test Range (AFWTR)
Object type
Payload
Rocket body
Debris
Shape & HBR
Unknown shape, 0.1 m
Radar Cross Section
Small (<0.1 m²)

Expand to show TLE details & history
Last TLE update: 1 day ago

TLE from 1 day ago
0 NOAA 16 DEB
1 41264U 00055FQ  25306.42566507  .00003679  00000-0  15660-2 0  9993
2 41264  98.6414 359.8030 0002706  83.7579 276.3909 14.25786632509490
Epoch: 2025-11-02T10:12Z
TLE epoch observation values (Epoch: 2025-11-02T10:12:57.462Z)
Latitude
-0°
Longitude
164.622°
Altitude
808.558 km
Speed
7.449 km/s
True Right ascension
23h 59m 12s
True Declination
0° 00' 00"
Sunlit
Object was in full shadow at epoch
Visualization orbit readout
Latitude
Unknown
Longitude
Unknown
Altitude
Unknown
Speed
Unknown
Apparent Right ascension
Unknown
Apparent Declination
Unknown
Sunlit
N/A
Visualization observer readout
Local Sidereal Time
07:40:20
Azimuth
Unknown
Elevation
Unknown
Doppler factor
Unknown
Orbital elements
Apogee altitude
804.94 km
Perigee altitude
801.053 km
Semi-major axis
7,181.134 km
Eccentricity
0.00027
Inclination
98.6414°
RAAN
359.803°
Arg. of periapsis
83.7579°
True anomaly
276.36008°
Mean anomaly
276.3909°
Eccentric anomaly
276.37549°
Mean motion
3.56659 °/min
Orbital period
100.94 mins
BSTAR
0.001566
Loading maneuver chart data...
Computing Atmospheric mass density...
Loading historical data...
Loading historical data...
Loading historical data...
Loading historical data...
Loading historical data...
Loading historical data...
Loading historical data...

Documentation

Showing up to 5 results
|